Weather History for PACD - December, 2013

Change the Weather History Date:

Wednesday, December 4, 2013

  Actual Average Record
Temperature  
Mean Temperature 48 °F 32 °F  
Max Temperature 50 °F 37 °F 50 °F (2013)
Min Temperature 46 °F 28 °F 10 °F (1977)
Degree Days  
Heating Degree Days 17 33  
Month to date heating degree days 96 129  
Since 1 July heating degree days 2612 3155  
Cooling Degree Days 0    
Month to date cooling degree days 0  
Year to date cooling degree days 0  
Moisture  
Dew Point 44 °F    
Average Humidity 0    
Maximum Humidity 0    
Minimum Humidity 0    
Precipitation  
Precipitation 0.48 in 0.16 in 1.37 in (1993)
Month to date precipitation 0.57 0.65  
Year to date precipitation 42.69 37.86  
Snow  
Snow 0.00 in 0.40 in 3.70 in (1985)
Month to date snowfall 0.0 1.6  
Since 1 July snowfall 3.6 14.2  
Snow Depth 0.00 in    
Sea Level Pressure  
Sea Level Pressure 29.80 in    
Wind  
Wind Speed 21 mph (SE)    
Max Wind Speed 33 mph    
Max Gust Speed 45 mph    
Visibility 5 miles    
Events Rain    
T = Trace of Precipitation, MM = Missing Value Source: NWS Daily Summary

Daily Weather History Graph

Daily Weather History Graph

Search for Another Location

Airport or City:

Trip Planner

Search our weather history database for the weather conditions in past years. The results will help you decide how hot, cold, wet, or windy it might be!

Date:

Astronomy

Dec. 04, 2013 Rise Set
Actual Time 9:58 AM AKST 5:23 PM AKST
Civil Twilight 9:13 AM AKST 6:08 PM AKST
Nautical Twilight 8:26 AM AKST 6:55 PM AKST
Astronomical Twilight 7:42 AM AKST 7:39 PM AKST
Moon 11:29 AM AKST (12/4) 7:58 PM AKST (12/4)
Length of Visible Light 8h 54m
Length of Day
7h 25m
Waxing Crescent, 5% of the Moon is Illuminated
Dec 4
Waxing Crescent
Dec 9
First Quarter
Dec 17
Full
Dec 25
Last Quarter
Jan 1
New

Hourly Weather History & Observations

Time (AKST) Temp. Windchill Dew Point Humidity Pressure Visibility Wind Dir Wind Speed Gust Speed Precip Events Conditions
12:04 AM 46.4 °F 38.1 °F 44.6 °F 93% 29.89 in 2.5 mi South 24.2 mph 32.2 mph 0.00 in Rain Light Rain
12:10 AM 46.4 °F 37.9 °F 42.8 °F 87% 29.90 in 3.0 mi South 25.3 mph - 0.00 in Rain Light Rain
12:12 AM 46.4 °F 38.1 °F 42.8 °F 87% 29.90 in 2.5 mi South 24.2 mph - 0.00 in Rain Light Rain
12:29 AM 46.4 °F 38.7 °F 44.6 °F 93% 29.90 in 2.5 mi South 20.7 mph - 0.01 in Rain Light Rain
12:53 AM 46.0 °F 39.6 °F 44.1 °F 93% 29.90 in 2.0 mi South 15.0 mph - 0.02 in Rain Light Rain
1:10 AM 46.4 °F 41.1 °F 44.6 °F 93% 29.89 in 2.0 mi SSE 11.5 mph - 0.00 in Rain Light Rain
1:25 AM 46.4 °F 41.5 °F 44.6 °F 93% 29.89 in 2.0 mi SSE 10.4 mph - 0.01 in Rain Light Rain
1:39 AM 46.4 °F 41.5 °F 44.6 °F 93% 29.89 in 2.0 mi SE 10.4 mph - 0.03 in Rain Light Rain
1:53 AM 46.9 °F - 44.1 °F 90% 29.89 in 2.5 mi SSE 12.7 mph - 0.05 in Rain Light Rain
2:01 AM 46.4 °F 39.8 °F 44.6 °F 93% 29.89 in 2.5 mi SSE 16.1 mph - 0.00 in Rain Light Rain
2:14 AM 46.4 °F 39.2 °F 44.6 °F 93% 29.90 in 2.5 mi SSE 18.4 mph - 0.00 in Rain Light Rain
2:53 AM 46.9 °F - 45.0 °F 93% 29.90 in 2.0 mi SSE 18.4 mph - 0.07 in Rain Light Rain
2:57 AM 46.4 °F 39.5 °F 44.6 °F 93% 29.89 in 2.0 mi SE 17.3 mph - 0.01 in Rain Light Rain
3:20 AM 46.4 °F 39.8 °F 44.6 °F 93% 29.89 in 1.8 mi SE 16.1 mph - 0.06 in Rain Light Rain
3:40 AM 48.2 °F - 44.6 °F 87% 29.88 in 3.0 mi SSE 17.3 mph 25.3 mph 0.09 in Rain Light Rain
3:53 AM 48.0 °F - 45.0 °F 89% 29.88 in 7.0 mi SSE 13.8 mph - 0.09 in Rain Light Rain
4:53 AM 48.0 °F - 45.0 °F 89% 29.87 in 10.0 mi SSE 6.9 mph - 0.00 in Rain Light Rain
5:18 AM 46.4 °F 43.5 °F 42.8 °F 87% 29.85 in 10.0 mi Variable 5.8 mph - 0.00 in   Overcast
5:53 AM 48.0 °F - 43.0 °F 83% 29.83 in 10.0 mi East 12.7 mph 19.6 mph 0.00 in   Overcast
6:21 AM 46.4 °F 41.9 °F 42.8 °F 87% 29.80 in 10.0 mi East 9.2 mph - N/A   Overcast
6:53 AM 48.0 °F - 43.0 °F 83% 29.78 in 10.0 mi East 24.2 mph 31.1 mph N/A   Overcast
7:02 AM 48.2 °F - 42.8 °F 82% 29.78 in 9.0 mi ESE 19.6 mph 29.9 mph 0.00 in Rain Light Rain
7:13 AM 46.4 °F 39.8 °F 42.8 °F 87% 29.78 in 9.0 mi ESE 16.1 mph 27.6 mph 0.00 in Rain Light Rain
7:53 AM 48.0 °F - 44.1 °F 86% 29.77 in 6.0 mi ESE 27.6 mph 35.7 mph 0.03 in Rain Rain
8:40 AM 48.2 °F - 44.6 °F 87% 29.76 in 6.0 mi SE 27.6 mph 39.1 mph 0.06 in Rain Rain
8:50 AM 48.2 °F - 44.6 °F 87% 29.76 in 6.0 mi SE 26.5 mph 35.7 mph 0.07 in Rain Light Rain
8:53 AM 48.0 °F - 44.1 °F 86% 29.77 in 7.0 mi SE 28.8 mph 35.7 mph 0.07 in Rain Light Rain
9:53 AM 48.0 °F - 44.1 °F 86% 29.76 in 10.0 mi ESE 25.3 mph 32.2 mph 0.04 in   Overcast
10:23 AM 48.2 °F - 44.6 °F 87% 29.76 in 9.0 mi SE 16.1 mph 29.9 mph 0.00 in   Overcast
10:53 AM 48.9 °F - 45.0 °F 86% 29.75 in 8.0 mi SE 16.1 mph 28.8 mph 0.00 in   Overcast
11:29 AM 48.2 °F - 46.4 °F 93% 29.75 in 9.0 mi SSE 13.8 mph 20.7 mph 0.00 in Rain Light Rain
11:53 AM 48.9 °F - 45.0 °F 86% 29.75 in 3.0 mi SE 20.7 mph 33.4 mph 0.00 in Rain Light Rain
12:53 PM 48.0 °F - 45.0 °F 89% 29.75 in 3.0 mi SE 23.0 mph 29.9 mph 0.01 in Rain Light Rain
1:53 PM 48.0 °F - 45.0 °F 89% 29.75 in 6.0 mi SSE 19.6 mph 26.5 mph 0.05 in Rain Light Rain
2:53 PM 48.0 °F - 45.0 °F 89% 29.74 in 5.0 mi SSE 24.2 mph 29.9 mph 0.04 in Rain Light Rain
3:24 PM 48.2 °F - 44.6 °F 87% 29.73 in 3.0 mi SE 24.2 mph 32.2 mph 0.01 in Rain Light Rain
3:30 PM 48.2 °F - 44.6 °F 87% 29.73 in 1.8 mi SE 25.3 mph 32.2 mph 0.01 in Rain Light Rain
3:53 PM 48.0 °F - 45.0 °F 89% 29.72 in 2.0 mi SSE 25.3 mph 34.5 mph 0.01 in Rain Light Rain
4:13 PM 46.4 °F 37.5 °F 44.6 °F 93% 29.72 in 1.5 mi SSE 27.6 mph 38.0 mph 0.00 in Rain Light Rain
4:22 PM 46.4 °F 39.0 °F 44.6 °F 93% 29.73 in 3.0 mi SSE 19.6 mph 35.7 mph 0.00 in Rain Light Rain
4:49 PM 46.4 °F 40.4 °F 44.6 °F 93% 29.75 in 2.0 mi SE 13.8 mph 23.0 mph 0.00 in   Overcast
4:53 PM 46.9 °F - 45.0 °F 93% 29.75 in 2.0 mi SE 16.1 mph 21.9 mph 0.00 in   Overcast
5:04 PM 48.2 °F - 44.6 °F 87% 29.75 in 7.0 mi SE 20.7 mph 28.8 mph N/A   Overcast
5:19 PM 46.4 °F 39.8 °F 44.6 °F 93% 29.75 in 10.0 mi SE 16.1 mph 26.5 mph N/A   Overcast
5:53 PM 48.0 °F - 45.0 °F 89% 29.74 in 10.0 mi SE 12.7 mph 25.3 mph N/A   Overcast
6:11 PM 48.2 °F - 44.6 °F 87% 29.74 in 10.0 mi SE 15.0 mph - N/A   Overcast
6:53 PM 48.9 °F - 45.0 °F 86% 29.74 in 10.0 mi SE 25.3 mph 32.2 mph N/A   Overcast
7:53 PM 48.9 °F - 45.0 °F 86% 29.75 in 10.0 mi SE 31.1 mph 39.1 mph N/A   Overcast
8:06 PM 48.2 °F - 44.6 °F 87% 29.75 in 10.0 mi SE 29.9 mph 39.1 mph N/A   Overcast
8:25 PM 48.2 °F - 44.6 °F 87% 29.75 in 2.0 mi SE 29.9 mph 41.4 mph N/A   Overcast
8:34 PM 48.2 °F - 44.6 °F 87% 29.75 in 2.0 mi SE 29.9 mph 40.3 mph N/A   Overcast
8:53 PM 48.0 °F - 45.0 °F 89% 29.75 in 2.5 mi SE 26.5 mph 38.0 mph N/A   Overcast
9:08 PM 48.2 °F - 44.6 °F 87% 29.74 in 6.0 mi SE 25.3 mph 39.1 mph 0.00 in Rain Light Rain
9:53 PM 46.9 °F - 44.1 °F 90% 29.75 in 8.0 mi SE 20.7 mph 29.9 mph 0.00 in   Overcast
10:53 PM 46.9 °F - 44.1 °F 90% 29.78 in 8.0 mi SE 24.2 mph 32.2 mph 0.00 in   Overcast
11:53 PM 46.9 °F - 44.1 °F 90% 29.81 in 4.0 mi SE 25.3 mph 32.2 mph 0.00 in Rain Light Rain